Regional Weather Roundup
Issued by NWS State College, PA

Home | Current Version | Previous Version | Text Only | Print | Product List | Glossary Off
Versions: 1 2 3 4 5 6 7 8 9 10 11 12 13 14 15 16 17 18 19 20 21 22 23 24 25 26 27 28 29 30 31 32 33 34 35 36 37 38 39 40 41 42 43 44 45 46 47 48 49 50

000
ASUS41 KCTP 041010
RWRCTP

REGIONAL WEATHER ROUNDUP
NATIONAL WEATHER SERVICE STATE COLLEGE PA
600 AM EDT SAT JUL 04 2015

Note: "fair" indicates few or no clouds below 12,000 feet with no
significant weather and/or obstructions to visibility.

* = STATION THAT DOES NOT REPORT PRECIPITATION /E.G. RAIN...SNOW...ETC/
    THUNDER OR FOG.

PAZ002>004-007>009-013>016-020>023-029>032-041100-
WESTERN PENNSYLVANIA

CITY           SKY/WX    TMP DP  RH WIND       PRES   REMARKS
ERIE           MOCLDY    57  53  86 CALM      29.90R
MEADVILLE      CLOUDY    61  54  77 CALM      29.91R
FRANKLIN*      CLOUDY    63  59  88 CALM      29.91S
NEW CASTLE     PTSUNNY   65  65 100 CALM      29.90R
BEAVER COUNTY  NOT AVBL
BUTLER*        MOCLDY    64  63  94 NE3       29.90R
PITTSBURGH INT CLOUDY    66  64  93 N6        29.87R FOG
PITTSBURGH     FOG       64  61  90 NW3       29.86R VSB 1/2
INDIANA*       CLOUDY    64  64 100 CALM      29.91S FOG
LATROBE        NOT AVBL
WASHINGTON CO* NOT AVBL
$$

PAZ004>006-010>012-017>019-024>028-033>037-041-042-045-046-049>053-041100-
CENTRAL PENNSYLVANIA

CITY           SKY/WX    TMP DP  RH WIND       PRES   REMARKS
BRADFORD       CLOUDY    62  60  93 NE3       29.93S FOG
DUBOIS         CLOUDY    64  61  90 E3        29.89S FOG
CLEARFIELD     LGT RAIN  63  61  93 NW3       29.90S FOG
JOHNSTOWN      RAIN      62  60  93 CALM      29.90S FOG
ALTOONA        LGT RAIN  63  61  93 SE7       29.90S FOG
STATE COLLEGE  LGT RAIN  63  61  94 CALM      29.91S FOG
WILLIAMSPORT   HVY RAIN  65  63  93 SE12      29.91R FOG
SELINSGROVE    LGT RAIN  64  62  93 N3        29.94R FOG
FT INDIANTOWN  CLOUDY    62  60  94 CALM      29.92S
CAPITAL CITY   CLOUDY    66  63  90 E3        29.90F
HARRISBURG     CLOUDY    67  62  84 CALM      29.90F
YORK           CLOUDY    65  64  97 CALM      29.91S FOG
$$

PAZ038>040-043-044-047-048-054-055-060>062-067>071-041100-
EASTERN PENNSYLVANIA

CITY           SKY/WX    TMP DP  RH WIND       PRES   REMARKS
SCRANTON       LGT RAIN  63  59  87 E3        29.95F
MOUNT POCONO   LGT RAIN  62  58  86 SE3       29.98
ALLENTOWN      LGT RAIN  68  64  88 NE5       29.94S
QUAKERTOWN*    CLOUDY    66  64  94 E3        29.95S
READING        CLOUDY    66  63  90 N3        29.91F
LANCASTER      LGT RAIN  66  64  93 CALM      29.91F
COATESVILLE    CLOUDY    66  66 100 E6        29.93S FOG
POTTSTOWN      CLOUDY    67  64  90 NE5       29.93F
BLUE BELL      CLOUDY    68  66  94 NE3       29.92F
DOYLESTOWN     CLOUDY    65  64  97 NE3       29.93F
WILLOW GROVE   NOT AVBL
NORTH PHILA    CLOUDY    68  63  84 NE5       29.94S
PHILADELPHIA   CLOUDY    70  66  87 NE6       29.92S
$$



USA.gov is the U.S. government's official web portal to all federal, state and local government web resources and services.